Regional Weather Roundup
Issued by NWS Mobile, AL

Home | Current Version | Previous Version | Text Only | Print | Product List | Glossary On
Versions: 1 2 3 4 5 6 7 8 9 10 11 12 13 14 15 16 17 18 19 20 21 22 23 24 25 26 27 28 29 30 31 32 33 34 35 36 37 38 39 40 41 42 43 44 45 46 47 48 49 50
000
ASUS44 KMOB 012210
RWRMOB
REGIONAL WEATHER ROUNDUP
NATIONAL WEATHER SERVICE MOBILE AL
400 PM CST SUN FEB 01 2015

NOTE: "FAIR" INDICATES FEW OR NO CLOUDS BELOW 12,000 FEET WITH NO
      SIGNIFICANT WEATHER AND/OR OBSTRUCTIONS TO VISIBILITY.

  * THESE STATIONS ARE PART OF THE UNIVERSITY OF SOUTH ALABAMA
    MESONET AND ARE NOT UNDER NWS OR FAA QUALITY CONTROL.

ALZ061>064-012300-
COASTAL ALABAMA

CITY           SKY/WX    TMP DP  RH WIND       PRES   REMARKS
MOBILE REG APT CLOUDY    66  64  93 SW13      29.91F
BROOKLEY FIELD CLOUDY    66  64  93 SW5       29.93F
USA CAMPUS*    NOT AVBL
DOG RIVER*     NOT AVBL


CITY           SKY/WX    TMP DP  RH WIND       PRES   REMARKS
MOUNT VERNON*  NOT AVBL
SARALAND*      NOT AVBL
BAY MINETTE*   NOT AVBL
LOXLEY*        NOT AVBL
ROBERTSDALE*   NOT AVBL
FAIRHOPE*        N/A     66  63  88 S13       29.92F
ELBERTA*         N/A     66  64  94 S5        29.93R
FOLEY*         NOT AVBL
GRAND BAY*     NOT AVBL
DAUPHIN ISLND* NOT AVBL
BON SCOUR NWR* NOT AVBL
GULF SHORES    CLOUDY    66  63  88 S7        29.93S

$$

ALZ051>060-012300-
INTERIOR SOUTHWEST AND SOUTH CENTRAL ALABAMA

CITY           SKY/WX    TMP DP  RH WIND       PRES   REMARKS
GREENVILLE     CLOUDY    61  59  94 S5        29.92R
EVERGREEN      CLOUDY    65  62  90 S12       29.92S
CASTLEBERRY*   NOT AVBL
ATMORE*          N/A     64  64 100 S13       29.93F
DIXIE*           N/A     63  63 100 SE3       29.92S
ANDALUSIA/OPP  LGT RAIN  66  61  84 S7        29.94S
ANDALUSIA*       N/A     63  63 100 SW7       29.94
FLORALA APT    CLOUDY    63  60  90 S8        29.97R
FLORALA*       NOT AVBL

$$

FLZ001>006-012300-
WESTERN FLORIDA PANHANDLE

CITY           SKY/WX    TMP DP  RH WIND       PRES   REMARKS
PENSACOLA      CLOUDY    63  62  97 S7        29.93F
NAS PENSACOLA  CLOUDY    65  64  97 S9        29.93S
MILTON         CLOUDY    63  61  93 S10       29.93F
WHTNG S FIELD  CLOUDY    65  62  90 S6        29.94S


CITY           SKY/WX    TMP DP  RH WIND       PRES   REMARKS
WALNUT HILL*   NOT AVBL
JAY*           NOT AVBL
DUKE FIELD     RAIN      63  62  95 S13       29.96S
CRESTVIEW      CLOUDY    64  32  30 S10       29.97F
VALPARAISO     LGT RAIN  63  61  96 S14       29.95S FOG
DESTIN         RAIN      65  64  97 S9        29.95S FOG

$$

MSZ076-079-012300-
INTERIOR SOUTHEAST MISSISSIPPI

CITY           SKY/WX    TMP DP  RH WIND       PRES   REMARKS
LEAKESVILLE*   NOT AVBL
AGRICOLA*      NOT AVBL

$$

MARINE OBSERVATIONS

STATION/POSITION TIME  TEMP    WIND        PRES    WAVE
                       AIR SEA DIR/SP/G            HT/PER
                 (UTC) (F)     (DEG/KT/KT) (MB)    (FT/S)
PASCAGOULA       2200   64     210/  4/  6 1012.7F
PETIT BOIS ISLND 2200   64     220/  7/  8 1013.2F
GRAND BAY        2100   62     220/  4     1014.0S
KATRINA CUT      2100   62     220/ 10     1013.9F
CEDAR POINT      2100   61     210/ 11     1013.2S
E DAUPHIN ISLAND 2100   64     200/  5/  8 1012.9F
MIDDLE BAY LIGHT 2100   55     210/  8     1012.9F
USCG MOBILE BAY  2200   59 55  160/  5/  8 1011.8F
STATE DOCKS      2200   59 51              1012.6F
MEAHER PARK      2100   62     160/ 11     1012.9F
WEEKS BAY        2100   64                   N/A
FORT MORGAN      2200   64     210/ 15/ 15 1012.5F
12 S ORANGE BCH  2200   65 62  170/ 10/ 12 1012.8F   6/ 8
PENSACOLA BAY    2200   64 57  190/  2/  4 1013.9R
64 S DAUPHIN ISL 2059   70 69  240/ 12/ 14 1013.9S   5/ 7

$$

SELECTED LOCATIONS ACROSS THE REGION

CITY           SKY/WX    TMP DP  RH WIND       PRES   REMARKS
NEW ORLEANS    PTSUNNY   72  58  61 SW18G25   29.90S
GULFPORT       PTSUNNY   67  63  87 SW8       29.90F
PASCAGOULA AP  CLOUDY    65  62  90 S7        29.91F
PASCAGOULA*    NOT AVBL
HATTIESBURG    LGT RAIN  64  61  90 S9        29.89F
LAUREL         CLOUDY    63  59  88 S10       29.88F
MERIDIAN       LGT RAIN  66  58  75 SW15      29.83S
JACKSON        PTSUNNY   69  59  70 S9        29.80F
MONTGOMERY     LGT RAIN  58  55  90 SE7       29.91F
TROY           LGT RAIN  61  59  93 S15G23    29.92F
KINSTON*       NOT AVBL
GENEVA*        NOT AVBL
ASHFORD*         N/A     63  63 100 SW7       29.94
DOTHAN         LGT RAIN  60  58  92 S12       30.01S
PANAMA CITY    RAIN      63  61  94 SE10      29.98F FOG

$$




USA.gov is the U.S. government's official web portal to all federal, state and local government web resources and services.